Regional Weather Roundup
Issued by NWS

Home | Current Version | Previous Version | Text Only | Print | Product List | Glossary On
Versions: 1 2 3 4 5 6 7 8 9 10 11 12 13 14 15 16 17 18 19 20 21 22 23 24 25 26 27 28 29 30 31 32 33 34 35 36 37 38 39 40 41 42 43 44 45 46 47 48 49 50
000
ASUS43 KMKX 210821
RWRWI

WISCONSIN REGIONAL WEATHER ROUNDUP
NATIONAL WEATHER SERVICE MILWAUKEE/SULLIVAN WI
300 AM CDT TUE APR 21 2015

NOTE: "FAIR" INDICATES FEW OR NO CLOUDS BELOW 12,000 FEET WITH NO
SIGNIFICANT WEATHER AND/OR OBSTRUCTIONS TO VISIBILITY.

WIZ001-002-006>008-014>016-023>028-210900-
NORTHWEST WISCONSIN

CITY           SKY/WX    TMP DP  RH WIND       PRES   REMARKS
SUPERIOR ARPT  CLOUDY    34  28  80 W13       29.39S WCI  25
ASHLAND        LGT SNOW  33  31  92 W13       29.35R FOG     WCI  24
HAYWARD        LGT SNOW  32  29  88 W8        29.38S FOG     WCI  25
SIREN          CLOUDY    33  31  94 W9G16     29.44S WCI  25
CUMBERLAND     FLURRIES  32  30  93 W13G18    29.43S WCI  22
RICE LAKE      LGT SNOW  33  31  92 W12       29.45S WCI  24
CHETEK         FLURRIES  33  31  91 W10G16    29.44S WCI  25
LADYSMITH      CLOUDY    34  32  92 W15       29.41S WCI  24
EAU CLAIRE     LGT SNOW  34  30  85 W12       29.46S FOG     WCI  25
MENOMONIE      FLURRIES  35  31  87 W14G20    29.48S WCI  25
NEW RICHMOND   FLURRIES  33  31  92 W14       29.48F WCI  23
OSCEOLA        CLOUDY    35  29  79 W13G20    29.51S WCI  26
$$

WIZ003>005-009-010-017-018-210900-
NORTH CENTRAL WISCONSIN

CITY           SKY/WX    TMP DP  RH WIND       PRES   REMARKS
MANITOWISH WTR LGT SNOW  31  31  99 W8        29.30S WCI  24
ARBOR VITAE    LGT SNOW  33  31  93 W9G16     29.31S WCI  25
WOODRUFF       LGT SNOW  33  31  93 W9G16     29.31S WCI  25
RHINELANDER    LGT SNOW  32  29  88 W12       29.33F FOG     WCI  23
EAGLE RIVER    LGT SNOW  32  28  86 W9        29.29F WCI  24
LAND O LAKES   LGT SNOW  32  30  93 W6        29.29S WCI  26
PHILLIPS       LGT SNOW  32  30  94 W6        29.34F WCI  26
TOMAHAWK       LGT SNOW  32  29  90 CALM      29.36S
MEDFORD        LGT SNOW  32  31  95 W10       29.38F WCI  24
MERRILL        LGT SNOW  33  32  95 W9        29.37S WCI  25
$$

WIZ029-030-035-036-043>047-210900-
CENTRAL WISCONSIN

CITY           SKY/WX    TMP DP  RH WIND       PRES   REMARKS
WAUSAU         CLOUDY    34  30  85 W15       29.38F WCI  24
MOSINEE        CLOUDY    34  32  93 W12G18    29.41S WCI  25
MARSHFIELD     FLURRIES  34  32  92 W10       29.42S WCI  26
STEVENS POINT  CLOUDY    33  29  85 W10       29.42F WCI  25
WAUPACA        CLOUDY    38  32  77 W13       29.44S WCI  30
WAUTOMA        CLOUDY    38  31  76 W10       29.46S WCI  31
WISC RAPIDS    FLURRIES  36  29  75 W9        29.45S WCI  29
CAMP DOUGLAS   MIX PCPN  36  36 100 SW13      29.47S WCI  27
$$

WIZ011>013-019>022-031-037>040-048>050-210900-
NORTHEAST WISCONSIN

CITY           SKY/WX    TMP DP  RH WIND       PRES   REMARKS
ANTIGO         FLURRIES  32  29  89 W12       29.36S WCI  23
SHAWANO        CLOUDY    39  29  69 W10G16    29.40S WCI  32
OCONTO         CLOUDY    37  29  72 W10G21    29.38F WCI  30
STURGEON BAY   CLOUDY    37  27  65 W13G18    29.40S WCI  29
GREEN BAY      LGT RAIN  38  33  82 SW9       29.41F WCI  31
MANITOWOC      LGT RAIN  41  31  67 W14       29.43F
APPLETON       CLOUDY    36  28  75 W15G25    29.43S WCI  26
CLINTONVILLE   DRIZZLE   36  32  87 W14       29.41S WCI  27
OSHKOSH        CLOUDY    38  30  73 W10G21    29.44S WCI  31
$$

WIZ032>034-041-042-053>061-210900-
SOUTHWEST WISCONSIN

CITY           SKY/WX    TMP DP  RH WIND       PRES   REMARKS
LA CROSSE      LGT RAIN  38  32  79 W17G24    29.52S WCI  28
SPARTA         DRIZZLE   36  31  83 W14       29.50S WCI  27
VIROQUA        CLOUDY    36  32  87 W17       29.51S WCI  25
BOSCOBEL       PTCLDY    41  29  62 W13G21    29.56S
PRAIRIE DU CHI MOCLDY    39  29  67 W16       29.58S WCI  30
PLATTEVILLE    CLEAR     38  31  76 W18G24    29.57S WCI  28
$$

WIZ056-057-062-063-064-067-068-210900-
SOUTH CENTRAL WISCONSIN

CITY           SKY/WX    TMP DP  RH WIND       PRES   REMARKS
REEDSBURG      MOCLDY    36  31  82 W9        29.49F WCI  29
BARABOO/DELLS  CLOUDY    37  31  78 W13G18    29.49S WCI  29
LONE ROCK      MOCLDY    40  29  64 W18G28    29.53S WCI  31
MINERAL POINT  MOCLDY    37  32  81 W16G22    29.53F WCI  28
MADISON        CLOUDY    40  29  64 VRB6      29.51S
MIDDLETON      CLOUDY    41  29  63 W14       29.51S
WATERTOWN      CLOUDY    39  32  75 SW9       29.49F WCI  33
MONROE         PTCLDY    36  32  87 SW17      29.54F WCI  25
JANESVILLE     CLEAR     37  30  75 SW12      29.54F WCI  30
$$

WIZ051-052-058>065-066-070>072-210900-
SOUTHEAST WISCONSIN

CITY           SKY/WX    TMP DP  RH WIND       PRES   REMARKS
MILWAUKEE      CLOUDY    42  30  62 SW14G23   29.52F
WAUKESHA       CLOUDY    37  30  75 SW14G22   29.51F WCI  29
MILWAUKEE/TIMM CLOUDY    39  30  70 SW18G26   29.51F WCI  30
RACINE         MOCLDY    41  30  65 SW12G20   29.54F
BURLINGTON     PTCLDY    37  30  77 SW13G20   29.53F WCI  28
KENOSHA        PTCLDY    39  31  72 W15       29.54F WCI  31
FOND DU LAC    LGT RAIN  38  31  76 W9G22     29.46F WCI  31
SHEBOYGAN      CLOUDY    40  30  67 SW21      29.45F WCI  30
WEST BEND      CLOUDY    37  30  75 SW14      29.47F WCI  29
JUNEAU         CLOUDY    38  32  78 SW12G18   29.49F WCI  30
$$

LSZ147-162-210900-
LAKE SUPERIOR

STATION/POSITION TIME  TEMP    WIND        PRES    WAVE
                       AIR SEA DIR/SP/G            HT/PER
                 (UTC) (F)     (DEG/KT/KT) (MB)    (FT/S)
DEVILS ISLAND    0800   35     260/ 22/ 26  992.8S
PORT WING        0700   36     260/ 16/ 25  994.6
SAXON HARBOR     0700   35     240/  7/ 14  993.2F
$$

LMZ867-665-643>646-210900-
LAKE MICHIGAN

STATION/POSITION TIME  TEMP    WIND        PRES    WAVE
                       AIR SEA DIR/SP/G            HT/PER
                 (UTC) (F)     (DEG/KT/KT) (MB)    (FT/S)
CHAMBERS ISLAND  0700   38     210/  6/ 13  995.3F
NORTHPORT PIER   0700   38     220/  6/ 14  995.3S
SISTER BAY       0702   39     230/ 14/ 16   N/A
KEWAUNEE LAKESHO 0700   40     250/  8/ 12  995.8F
SHEBOYGAN LAKESH 0800   41     240/ 17/ 22  997.8F
PORT WASHINGTON  0700   42     240/  7/ 11  999.7F
MILWAUKEE LAKESH 0800   42     240/ 14/ 19   N/A
KENOSHA   LAKESH 0800   41     240/ 10/ 17 1000.7F
$$

TC  - TEMPERATURE IN CELSIUS
VSB - VISIBILITY IN STATUTE MILES
WCI - WIND CHILL INDEX
HX  - HEAT INDEX




USA.gov is the U.S. government's official web portal to all federal, state and local government web resources and services.